www.pogodaiklimat.ru

Погода и климат >> Архив погоды >> Россия >> Краснодарский край >> Ейск


ПОГОДА в Ейске

  • Прогноз погоды в Ейске
  • Монитор погоды в Ейске

АРХИВ ПОГОДЫ в Ейске

Время (UTC), дата Ветер
(напр.,м/с)
 
Видим.   Явления Облачность Т
(С)
Тd
(С)
f
(%)
Тe
(С)
Тes
(С)
Комфортность P
(гПа)
Po
(гПа)
Тmin
(С)
Tmax
(С)
R
(мм)
R24
(мм)
S
(см)
18 17.06 В 4
{10}
10 км ясно +26.1 +14.4 48 +28 +28 жарко 1012.3 1009.6
21 17.06 В 3 10 км ясно +24.4 +14.3 53 +27 +27 жарко 1013.4 1010.6
00 18.06 В 3 10 км ясно +23.1 +17.1 69 +28 +28 душно 1013.2 1010.4
03 18.06 В 3 10 км ясно +23.1 +17.3 70 +28 +29 душно 1014.0 1011.2 +22.3
06 18.06 СВ 5 10 км ясно +25.7 +17.7 61 +30 +35 душно 1014.1 1011.3
09 18.06 СВ 6 10 км ясно +27.3 +15.7 49 +30 +38 душно 1013.8 1011.0
12 18.06 СВ 5 10 км ясно +28.6 +16.1 47 +32 +39 душно 1013.1 1010.3
15 18.06 С 3 10 км ясно +28.1 +19.0 58 +33 +36 очень
душно
1012.1 1009.3 +29.5
18 18.06 С 2 10 км ясно +25.2 +20.9 77 +32 +32 очень
душно
1012.4 1009.6
21 18.06 В 2 10 км ясно +24.8 +17.4 63 +29 +29 душно 1012.5 1009.8
00 19.06 СВ 3 10 км ясно +24.4 +15.4 57 +27 +27 жарко 1012.2 1009.4
03 19.06 СВ 1 10 км ясно +24.4 +20.6 79 +30 +32 очень
душно
1012.2 1009.4 +20.0
06 19.06 СВ 4 10 км ясно +26.7 +21.0 71 +34 +40 очень
душно
1012.7 1010.0
09 19.06 С 5 10 км ясно +28.5 +18.6 55 +34 +43 очень
душно
1012.7 1010.0
12 19.06 СВ 4 10 км 3/3 1000 м
[Cu hum]
+30.1 +17.8 48 +35 +41 очень
душно
1011.6 1008.9
15 19.06 С 6 10 км ясно +29.3 +21.0 61 +37 +38 очень
душно
1010.6 1007.9 +30.6
18 19.06 СВ 4
{12}
10 км 3/3 600 м
[Cu hum]
+26.9 +16.7 54 +31 +31 душно 1011.0 1008.2
21 19.06 В 2 10 км ясно +25.3 +18.9 68 +30 +30 душно 1011.2 1008.4
00 20.06 В 3 10 км 4/0
[Ci fib]
+24.7 +18.7 69 +29 +29 душно 1011.2 1008.4
03 20.06 В 4 10 км 3/3 600 м
[Sc diur, vesp]
+24.3 +16.2 61 +28 +28 душно 1012.0 1009.2 +23.9
06 20.06 СВ 5 10 км ясно +26.5 +19.3 65 +32 +37 очень
душно
1011.8 1009.0
09 20.06 СВ 7-10
{10}
10 км ясно +28.2 +20.1 61 +34 +40 очень
душно
1011.4 1008.6
12 20.06 СВ 7-10
{11}
10 км 3/3 600 м
[Cu hum]
+29.6 +18.8 52 +35 +37 очень
душно
1010.6 1007.9
15 20.06 СВ 6
{10}
10 км 3/3 600 м
[Cu hum]
+29.6 +19.3 54 +35 +36 очень
душно
1009.9 1007.1 +29.8
18 20.06 СВ 3 10 км ясно +27.6 +20.0 63 +34 +34 очень
душно
1010.6 1007.8
21 20.06 В 4 10 км ясно +26.8 +16.5 53 +30 +30 душно 1011.2 1008.4
00 21.06 СВ 4 10 км ясно +25.9 +11.6 41 +27 +27 жарко 1011.8 1009.0
03 21.06 СВ 4
{10}
10 км 3/0
[Ac trans]
+25.7 +15.1 52 +29 +29 душно 1012.2 1009.4 +25.7
06 21.06 В 4
{10}
10 км 3/0
[Ac trans]
+28.1 +11.8 36 +29 +35 жарко 1012.9 1010.1
09 21.06 СВ 6 10 км 1/1 600 м
[Cu hum]
+29.6 +20.0 56 +36 +42 очень
душно
1012.5 1009.7
12 21.06 СВ 6
{11}
10 км 4/4 600 м
[Cu med, cong]
+31.0 +18.2 46 +35 +39 очень
душно
1012.4 1009.7
15 21.06 СВ 5 10 км 8/5 600 м
[Cb calv Ci fib]
+31.0 +18.3 47 +36 +36 очень
душно
1012.0 1009.3 +31.7
18 21.06 В 2
{17}
10 км {гроза} 8/5 600 м
[Cb calv Ci fib]
+27.4 +13.4 42 +29 +29 жарко 1012.9 1010.1
21 21.06 В 2 10 км 1/0
[Ci fib]
+26.3 +18.4 62 +31 +31 душно 1013.4 1010.6
00 22.06 В 3 10 км 3/0
[Ci fib]
+24.7 +14.4 53 +27 +27 жарко 1013.3 1010.5
03 22.06 В 4 10 км 8/6 600 м
[Sc diur, vesp Ci fib]
+24.4 +12.4 47 +26 +26 жарко 1013.7 1010.9 +22.0
06 22.06 В 4 10 км 10/9 600 м
[Cb calv Ci fib]
+26.8 +13.1 43 +29 +29 жарко 1014.3 1011.5
09 22.06 В 2 10 км 10/8 600 м
[Cu med, cong Ci fib]
+29.8 +11.4 32 +30 +33 жарко 1014.5 1011.7
12 22.06 С 1 10 км 10/10 600 м
[Cb calv]
+29.8 +16.8 46 +33 +33 душно 1013.9 1011.2
15 22.06 С 6
{12}
10 км 10/8 600 м
[Cu med, cong Ci fib]
+29.4 +15.9 44 +32 +33 душно 1012.6 1009.8 +30.8
18 22.06 СВ 4 10 км 8/8 600 м
[Cu med, cong]
+28.1 +18.2 55 +33 +33 очень
душно
1012.4 1009.7
21 22.06 В 4 10 км 10/10 600 м
[Sc diur, vesp]
+28.6 +13.1 38 +30 +30 жарко 1011.6 1008.8
00 23.06 В 4 10 км 10/10 600 м
[Sc diur, vesp]
+26.9 +10.6 36 +28 +28 жарко 1011.6 1008.8
03 23.06 В 5 10 км 10/10 600 м
[Sc diur, vesp]
+27.0 +14.1 45 +29 +29 жарко 1012.1 1009.3 +23.2
06 23.06 Ю 2 10 км {ливн. осадки} 10/10 600 м
[Cb calv]
+25.8 +12.7 44 +28 +28 жарко 1013.9 1011.1
09 23.06 СВ 2 10 км 10/10 600 м
[Cb calv]
+28.4 +14.3 42 +31 +31 душно 1013.6 1010.8
12 23.06 С 2 10 км 10/6 600 м
[Cb calv Ac cuf]
+27.2 +19.7 64 +33 +35 очень
душно
1013.0 1010.2
15 23.06 З 3 10 км слаб. ливневой дождь 10/10 600 м
[Cb calv]
+28.5 +16.1 47 +32 +32 душно 1012.3 1009.5 +29.2 0.0
18 23.06 З 3 10 км слаб. ливневой дождь 10/10 600 м
[Cb calv]
+23.4 +18.2 73 +29 +29 душно 1012.6 1009.8
21 23.06 ЮЗ 5 10 км слаб. ливневой дождь 10/10 600 м
[Cb calv]
+21.8 +18.4 81 +27 +27 душно 1013.0 1010.2
00 24.06 ЮЗ 1 10 км {ливн. осадки} 10/10 300 м
[Sc diur, vesp]
+21.2 +18.4 84 +25 +25 комфорт 1012.1 1009.3
03 24.06 ЮВ 3 10 км 8/5 600 м
[Cb calv Ci fib]
+22.7 +18.8 79 +29 +29 очень
душно
1012.9 1010.1 +20.7 0.9
06 24.06 В 3 10 км 8/5 600 м
[Cu med, cong Ci fib]
+28.9 +16.6 47 +32 +36 душно 1013.6 1010.8
09 24.06 СВ 5 50 км 9/4 600 м
[Cu med, cong Ci fib]
+28.6 +19.9 59 +35 +40 очень
душно
1013.5 1010.7
12 24.06 СВ 4 10 км в посл. час гроза {ливн. осадки} 10/8 600 м
[Cb calv Ci fib]
+26.6 +22.7 79 +35 +37 очень
душно
1013.4 1010.6
15 24.06 ЮВ 3 10 км {гроза, ливн. осадки} 9/6 600 м
[Cb calv Ci sp]
+28.7 +17.9 52 +33 +34 очень
душно
1013.6 1010.8 +30.6 1

 

Местоположение метеостанции Ейск (Краснодарский край, Россия): широта 46.80 долгота 38.27 высота над уровнем моря 3 м.

В архиве по умолчанию представлена погода в Ейске за последнюю неделю. Архивные данные за месяц целиком и за предыдущие месяцы, начиная с января 2011 года, Вы можете получить, выбрав интересующий диапазон дат из раскрывающегося списка и нажав кнопку "Ввод!".


*Определитесь, кто Вы:
робот инопланетянин человек

Внимание! Время в таблицах - всемирное. Для получения местного времени необходимо прибавить поправку, которая равна 3 ч.

Смотрите также архив погоды в соседних городах и на ближайших метеорологических станциях:

Погода в Должанке (Краснодарский край, Россия) (43 км)
Погода в Маргаритово (Ростовская область, Россия) (48 км)
Погода в Мариуполе (Донецкая область, Украина) (64 км)
Погода в Староминская (Краснодарский край, Россия) (65 км)
Погода в Таганроге (Ростовская область, Россия) (65 км)
Погода в Приморско-Ахтарске (Краснодарский край, Россия) (86 км)
Погода в Матвеевом Кургане (Ростовская область, Россия) (97 км)
Погода в Каневской (Краснодарский край, Россия) (97 км)
Погода в Кущевской (Краснодарский край, Россия) (107 км)
Погода в Бердянске (Запорожская область, Украина) (114 км)

Пояснения к столбцам:

Ветер - указаны скорость ветра в м/с - средняя за 10 мин, порывы в срок и между сроками (в фигурных скобках) и направление, откуда дует ветер: С - северный, СВ - северо-восточный, В - восточный, ЮВ - юго-восточный, Ю - южный, ЮЗ - юго-западный, З - западный, СЗ - северо-западный.
Видимость - горизонтальная дальность видимости в метрах или километрах. При видимости от 1 до 10 км при отсутствии осадков обычно наблюдается дымка, при ухудшении видимости до 1 км и менее - туман. В сухую погоду видимость может ухудшаться дымом, пылью или мглою.
Явления - указаны атмосферные явления, наблюдавшиеся в срок или в последний час перед сроком; фигурными скобками обозначены явления, наблюдавшиеся между сроками (за 1-3 часа до срока); квадратными скобками обозначены град или гололедные отложения с указанием их диаметра в мм.
Облачность - указаны через наклонную черту общая и нижняя облачность в баллах и высота нижней границы облаков в метрах; квадратными скобками обозначены формы облаков: Ci - перистые, Cs - перисто-слоистые, Cc - перисто-кучевые, Ac - высококучевые, As - высокослоистые, Sc - слоисто-кучевые, Ns - слоисто-дождевые, Cu - кучевые, Cb - кучево-дождевые. Подробнее классификацию облаков см. в Атласе облаков (PDF).
T - Температура воздуха - температура, измеренная на высоте 2 м над землей.
Td - Температура точки росы - температура, при понижении до которой содержащийся в воздухе водяной пар достигнет насыщения.
f - Относительная влажность воздуха - влажноcть воздуха, измеренная на высоте 2 м над землей.
Te - Эффективная температура - температура, которую ощущает одетый по сезону человек в тени. Характеристика душности погоды. При расчете учитывается влияние влажности воздуха и скорости ветра на теплоощущения человека.
Tes - Эффективная температура на солнце - температура, которую ощущает человек, с поправкой на солнечный нагрев. Характеристика знойности погоды. Зависит от высоты солнца над горизонтом, облачности и скорости ветра. Ночью, в пасмурную погоду, а также при ветре 12 м/с и более поправка равна нулю.
P - Атмосферное давление - приведенное к уровню моря атмосферное давление.
Po - Атмосферное давление - измеренное на уровне метеостанции атмосферное давление.
Tmin - Минимальная температура - минимум температуры воздуха на высоте 2 м над землей.
Tmax - Максимальная температура - максимум температуры воздуха на высоте 2 м над землей.
R - Количество осадков - Количество выпавших осадков за период времени, мм. При наведении курсора мыши на число - период времени, за который выпало указанное количество осадков.
R24 - Количество осадков - Количество выпавших осадков за 24 часа, мм.
S - Снежный покров - Высота снежного покрова, см. При наведении курсора мыши на число - состояние снежного покрова и степень покрытия местности в баллах.